Regional Weather Roundup
Issued by NWS Little Rock, AR

Home | Current Version | Previous Version | Text Only | Print | Product List | Glossary Off
Versions: 1 2 3 4 5 6 7 8 9 10 11 12 13 14 15 16 17 18 19 20 21 22 23 24 25 26 27 28 29 30 31 32

000
ASUS44 KLZK 050905
RWRLZK

WEATHER ROUNDUP FOR ARKANSAS
NATIONAL WEATHER SERVICE LITTLE ROCK AR
300 AM CST MON DEC 05 2016

NOTE: "FAIR" INDICATES FEW OR NO CLOUDS BELOW 12,000 FEET WITH NO
SIGNIFICANT WEATHER AND/OR OBSTRUCTIONS TO VISIBILITY.

ARZ001-003-010-029-051000-
NORTHWEST ARKANSAS

CITY           SKY/WX    TMP DP  RH WIND       PRES   REMARKS
FAYETTEVILLE   FOG       29  29 100 CALM      30.04F VSB 1/2
FORT SMITH     CLOUDY    38  36  92 CALM      30.05S
HARRISON       CLOUDY    32  32 100 W3        30.03F FOG
BENTONVILLE    CLOUDY    34  28  80 CALM      30.03F
ROGERS         CLOUDY    31  31 100 E3        30.04S VSB 1/4
SILOAM SPGS    CLOUDY    30  28  93 CALM      30.03S
HIGHFILL       FOG       28  27  96 CALM      30.03S VSB 1/2
$$

ARZ004-005-016-051000-
NORTH CENTRAL ARKANSAS

CITY           SKY/WX    TMP DP  RH WIND       PRES   REMARKS
BATESVILLE     CLOUDY    36  32  87 CALM      30.06F VSB 1/4
FLIPPIN        CLOUDY    30  27  86 CALM      30.03F VSB 1/4
MTN HOME       FOG       32  32 100 CALM      30.04F VSB 1/2
$$

ARZ040-041-051000-
WEST CENTRAL ARKANSAS

CITY           SKY/WX    TMP DP  RH WIND       PRES   REMARKS
MENA           CLOUDY    41  41 100 CALM      30.03S
MOUNT IDA      FOG       39  38  96 CALM      30.00S VSB 3/4
$$

ARZ009-017-025-026-028-051000-
NORTHEAST ARKANSAS

CITY           SKY/WX    TMP DP  RH WIND       PRES   REMARKS
CORNING        FAIR      37  37 100 N5        30.08F
JONESBORO      CLEAR     35  34  96 NE3       30.07R
WALNUT RIDGE   CLOUDY    34  30  86 N6        30.06S VSB 1/2 WCI  29
BLYTHEVILLE    CLOUDY    44  38  79 NE5       30.08R
$$

ARZ022-023-033-042-044-051000-
CENTRAL ARKANSAS

CITY           SKY/WX    TMP DP  RH WIND       PRES   REMARKS
LITTLE ROCK    CLOUDY    40  40 100 CALM      30.05S FOG
N LITTLE ROCK    N/A     42  41  97 CALM      30.07R
JACKSONVILLE   CLOUDY    38  37  99 NE2       30.03F FOG
SEARCY         MOCLDY    35  35 100 CALM      30.08S FOG
HOT SPRINGS    CLOUDY    42  41  96 CALM      30.04S
RUSSELLVILLE   FOG       40  40 100 CALM      30.05S VSB 1/2
CLINTON        CLOUDY    36  36 100 CALM      30.06S FOG
$$

ARZ036-051000-
EAST ARKANSAS

CITY           SKY/WX    TMP DP  RH WIND       PRES   REMARKS
WEST MEMPHIS   CLOUDY    43  38  82 NE9       30.05S
$$

ARZ050-053-066-070-073-051000-
SOUTHWEST ARKANSAS

CITY           SKY/WX    TMP DP  RH WIND       PRES   REMARKS
ARKADELPHIA    FAIR      45  44  97 N3        30.04F
CAMDEN         PTCLDY    45  41  87 CALM      30.04R
TEXARKANA      CLOUDY    46  44  93 CALM      30.03S
EL DORADO      PTCLDY    45  43  93 NE6       30.01F
DE QUEEN       MOCLDY    42  42 100 CALM      30.02F FOG
$$

ARZ056-057-069-051000-
SOUTHEAST ARKANSAS

CITY           SKY/WX    TMP DP  RH WIND       PRES   REMARKS
PINE BLUFF     CLOUDY    44  41  89 NE10      30.02F
STUTTGART      CLOUDY    41  37  87 N6        30.04F
MONTICELLO     PTCLDY    44  42  93 NE7       30.01F

$$






USA.gov is the U.S. government's official web portal to all federal, state and local government web resources and services.